カタログに戻る

STARLINK-38087

運用中通信SSO
NORAD 69743·PAYLOAD·🇺🇸 United States

打ち上げ Jul 2, 2026 から Vandenberg Space Force Base

Loading…

次のパス (今後24時間)

TLE

最新Source: CelesTrak SupGP

元期: Sep 15, 2026, 04:16 UTC

1 69743C 26150E   26258.17826389 -.00053255  00000+0 -16530-2 0  2586
2 69743  97.2848  97.2246 0001793  90.0069 256.3904 15.33467812    13

AllMySatでSTARLINK-38087をリアルタイム追跡

Download on the App Store